Hourly Data Report for October 04, 2017

All times are specified in Local Standard Time (LST). Add 1 hour to adjust for Daylight Saving Time where and when it is observed.

LILLOOET
BRITISH COLUMBIA

50°41'01.420" N
121°56'02.945" W
239.50 m
1114619
71999
WKF

Download Data

Hourly Data (October 2017)
Hourly Data Report for October 4, 2017
Temp Definition
°C
Dew Point Temp Definition
°C
Rel Hum Definition
%
Wind Dir Definition
10's deg

Wind Spd Definition
km/h
Visibility Definition
km
Stn Press Definition
kPa
Hmdx Definition


Wind Chill Definition


Weather Definition


TIME
00:00 4.5 -2.1 62 LegendMM LegendMM   99.87     LegendNANA
01:00 4.1 -2.5 62 LegendMM LegendMM   99.92     LegendNANA
02:00 3.7 -2.6 63 LegendMM LegendMM   99.94     LegendNANA
03:00 3.7 -1.1 71 LegendMM LegendMM   99.93     LegendNANA
04:00 2.7 -1.8 72 LegendMM LegendMM   99.93     LegendNANA
05:00 1.8 -1.8 77 LegendMM LegendMM   99.92     LegendNANA
06:00 1.6 -2.4 75 LegendMM LegendMM   99.92     LegendNANA
07:00 1.5 -1.3 81 LegendMM LegendMM   99.93     LegendNANA
08:00 4.9 -1.7 63 LegendMM LegendMM   99.90     LegendNANA
09:00 7.1 -3.3 48 LegendMM LegendMM   99.86     LegendNANA
10:00 9.5 -4.0 38 LegendMM LegendMM   99.77     LegendNANA
11:00 11.7 -5.3 30 LegendMM LegendMM   99.65     LegendNANA
12:00 14.4 -4.5 27 LegendMM LegendMM   99.51     LegendNANA
13:00 16.4 -4.9 23 LegendMM LegendMM   99.39     LegendNANA
14:00 17.0 -4.6 23 LegendMM LegendMM   99.30     LegendNANA
15:00 18.6 -4.6 20 LegendMM LegendMM   99.23     LegendNANA
16:00 16.6 -1.1 30 LegendMM LegendMM   99.18     LegendNANA
17:00 13.4 -0.9 37 LegendMM LegendMM   99.19     LegendNANA
18:00 11.0 -0.6 45 LegendMM LegendMM   99.24     LegendNANA
19:00 9.0 0.5 56 LegendMM LegendMM   99.31     LegendNANA
20:00 8.0 -0.8 54 LegendMM LegendMM   99.35     LegendNANA
21:00 6.6 -0.4 61 LegendMM LegendMM   99.36     LegendNANA
22:00 5.7 -0.4 65 LegendMM LegendMM   99.39     LegendNANA
23:00 4.8 -1.1 66 LegendMM LegendMM   99.40     LegendNANA

Notes on Data Quality.

Legend

  • E = Estimated
  • M = Missing
  • NA = Not Available
  • ‡ = Partner data that is not subject to review by the National Climate Archives
Date modified: